"Pseudo-MPEC" for P10WjoJ

Created 2020 Feb 27 1:07:13 UT using Find_Orb

Click here for an explanation of pseudo-MPECs

 
 Astrometry: 
     P10WjoJ  C2020 01 21KcM5ffGMJAstrometrysQXo=wIredacted;$5)t:l]]x0_bL0LFlF51
     P10WjoJ  C2020 01 21@:n@gEx\bO_@di;$ka;(_%AGRQMRQ@rGZfgGfe](:BIYe70%S8dXF51
     P10WjoJ  C2020 01 21Ye0embp3click5GU+HAq_Je[MDGk\WJ5p4m)SXnFte3/)4e46`_uF51
     P10WjoJ |C2020 01 22dKW7oX\+5,@_thC(Fk(tV*9*I(AcgpNl'?_VGOBhkd1sdW!^3qh'807
     P10WjoJ |C2020 01 22Vkcw/*m]wuV942:cO\,heretqmdNHIbtkCforP],Ml6t)gI_Z^Lu807
     P10WjoJ |C2020 01 22GU1-O2%explanationvvSDyok8n(xuNipWV?p7WvfYQQfZ=kV:EU807

Station data:
(807) Cerro Tololo Observatory, La Serena  (S30.169136 W70.805900)  Chile.
(F51) Pan-STARRS 1, Haleakala  (N20.707235 W156.255910)  US/Hawaii.
   Observers N. Primak, A. Schultz, S. Watters, J. Thiel, T. Goggia. Measurer
   PS1 Science Consortium. 1.8-m Ritchey-Chrétien + CCD.

Orbital elements:  P10WjoJ
   Perihelion 2020 Feb 2.753580 +/- 0.163 TT = 18:05:09 (JD 2458882.253580)
Epoch 2020 Jan 22.0 TT = JDT 2458870.5   Earth MOID: 0.0105   Ma: 0.0809
M 356.61978262 +/- 0.20             (J2000 ecliptic)          AutoNEOCP
n   0.28759045 +/- 0.021            Peri.  349.41514 +/- 1.5
a   2.27310625 +/- 0.111            Node   144.89212 +/- 1.2
e   0.5626077 +/- 0.0214            Incl.    3.17125 +/- 0.19
P   3.43                   H 26.8   G  0.15   U 10.1  
q 0.99423914 +/- 0.000487    Q 3.55197336 +/- 0.228
From 6 observations 2020 Jan. 21-22 (21.3 hr); mean residual 0".07
Residuals in arcseconds: 
200121 F51  .07+  .03+    200121 F51  .03+  .07-    200122 807  .09+  .02-    
200121 F51  .10-  .03+    200122 807  .12-  .08+    200122 807  .02+  .06-    

Ephemerides (geocentric):
Date (UTC) HH   RA              Dec         delta   r     elong  mag " sig PA
---- -- -- --  -------------   -----------  ------ ------ -----  --- ---- ---
2020 02 27 01  14 58 54.262   -07 22 34.75  .11802 1.0417 112.9 24.4 2471  59
2020 02 27 02  14 58 55.380   -07 21 58.06  .11818 1.0418 112.9 24.4 2470  59
2020 02 27 03  14 58 56.487   -07 21 21.43  .11834 1.0420 112.9 24.4 2469  59
2020 02 27 04  14 58 57.582   -07 20 44.88  .11850 1.0421 113.0 24.5 2468  59
2020 02 27 05  14 58 58.667   -07 20 08.40  .11866 1.0423 113.0 24.5 2466  59
2020 02 27 06  14 58 59.741   -07 19 31.99  .11882 1.0425 113.0 24.5 2465  59
2020 02 27 07  14 59 00.804   -07 18 55.65  .11898 1.0426 113.1 24.5 2464  59
2020 02 27 08  14 59 01.857   -07 18 19.39  .11914 1.0428 113.1 24.5 2463  59
2020 02 27 09  14 59 02.898   -07 17 43.19  .11930 1.0429 113.2 24.5 2462  59
2020 02 27 10  14 59 03.928   -07 17 07.07  .11946 1.0431 113.2 24.5 2461  59
2020 02 27 11  14 59 04.948   -07 16 31.01  .11962 1.0433 113.2 24.5 2459  59
2020 02 27 12  14 59 05.957   -07 15 55.03  .11978 1.0434 113.3 24.5 2458  59
2020 02 27 13  14 59 06.955   -07 15 19.11  .11994 1.0436 113.3 24.5 2457  59
2020 02 27 14  14 59 07.942   -07 14 43.27  .12011 1.0437 113.4 24.5 2456  59
2020 02 27 15  14 59 08.919   -07 14 07.49  .12027 1.0439 113.4 24.5 2455  59
2020 02 27 16  14 59 09.885   -07 13 31.78  .12043 1.0441 113.4 24.5 2454  60
2020 02 27 17  14 59 10.841   -07 12 56.15  .12059 1.0442 113.5 24.5 2453  60
2020 02 27 18  14 59 11.785   -07 12 20.57  .12075 1.0444 113.5 24.5 2452  60
2020 02 27 19  14 59 12.720   -07 11 45.07  .12091 1.0445 113.6 24.5 2450  60
2020 02 27 20  14 59 13.643   -07 11 09.64  .12107 1.0447 113.6 24.5 2449  60
2020 02 27 21  14 59 14.557   -07 10 34.27  .12123 1.0449 113.6 24.5 2448  60
2020 02 27 22  14 59 15.459   -07 09 58.97  .12139 1.0450 113.7 24.5 2447  60
2020 02 27 23  14 59 16.351   -07 09 23.73  .12155 1.0452 113.7 24.5 2446  60
2020 02 28 00  14 59 17.233   -07 08 48.56  .12171 1.0454 113.8 24.5 2445  60
2020 02 28 01  14 59 18.104   -07 08 13.46  .12187 1.0455 113.8 24.5 2444  60
2020 02 28 02  14 59 18.965   -07 07 38.42  .12203 1.0457 113.8 24.5 2443  60
2020 02 28 03  14 59 19.816   -07 07 03.45  .12219 1.0458 113.9 24.5 2442  60
2020 02 28 04  14 59 20.656   -07 06 28.55  .12235 1.0460 113.9 24.5 2441  60
2020 02 28 05  14 59 21.486   -07 05 53.71  .12251 1.0462 114.0 24.5 2440  60
2020 02 28 06  14 59 22.306   -07 05 18.93  .12267 1.0463 114.0 24.5 2439  60
2020 02 28 07  14 59 23.115   -07 04 44.22  .12283 1.0465 114.0 24.5 2437  60
2020 02 28 08  14 59 23.914   -07 04 09.57  .12299 1.0467 114.1 24.5 2436  60
2020 02 28 09  14 59 24.703   -07 03 34.99  .12315 1.0468 114.1 24.5 2435  60
2020 02 28 10  14 59 25.482   -07 03 00.47  .12331 1.0470 114.2 24.5 2434  60
2020 02 28 11  14 59 26.250   -07 02 26.01  .12347 1.0472 114.2 24.5 2433  60
2020 02 28 12  14 59 27.009   -07 01 51.62  .12363 1.0473 114.2 24.5 2432  60
2020 02 28 13  14 59 27.757   -07 01 17.29  .12379 1.0475 114.3 24.5 2431  60
2020 02 28 14  14 59 28.496   -07 00 43.02  .12395 1.0476 114.3 24.5 2430  60
2020 02 28 15  14 59 29.224   -07 00 08.82  .12411 1.0478 114.4 24.5 2429  60
2020 02 28 16  14 59 29.942   -06 59 34.67  .12427 1.0480 114.4 24.5 2428  60
2020 02 28 17  14 59 30.650   -06 59 00.59  .12443 1.0481 114.4 24.5 2427  60
2020 02 28 18  14 59 31.348   -06 58 26.57  .12459 1.0483 114.5 24.5 2426  60
2020 02 28 19  14 59 32.036   -06 57 52.61  .12475 1.0485 114.5 24.5 2425  60
2020 02 28 20  14 59 32.715   -06 57 18.71  .12491 1.0486 114.6 24.5 2424  60
2020 02 28 21  14 59 33.383   -06 56 44.88  .12507 1.0488 114.6 24.5 2423  60
2020 02 28 22  14 59 34.041   -06 56 11.10  .12523 1.0490 114.6 24.5 2422  60
2020 02 28 23  14 59 34.690   -06 55 37.38  .12539 1.0492 114.7 24.5 2421  60
2020 02 29 00  14 59 35.329   -06 55 03.73  .12555 1.0493 114.7 24.5 2420  60